Location: Belmont
(13.0833°N, 59.6000°W)
Time: 08:54:36
(UTC+00:00)

NOAA 12 - Pass Details

Date: 17 September 2019
Orbit: 796 x 815 km, 98.5° (Epoch: 14 October)

Event Time Altitude Azimuth Distance (km) Brightness Sun altitude
Rises 22:14:23 0° 169° (SSE) 3,296 7.1 -4.8°
Reaches altitude 10° 22:16:43 10° 169° (S) 2,364 6.4 -5.3°
Maximum altitude 22:21:56 84° 257° (WSW) 803 4.2 -6.6°
Drops below altitude 10° 22:27:10 10° 346° (NNW) 2,360 6.8 -7.9°
Sets 22:29:29 0° 347° (NNW) 3,289 7.5 -8.4°
